This is the latest recevied weather packets stored in our database for station/object N3WMC. If no packets are shown the sender has not sent any weather packets the latest 10 day(s).
| Time | Temp. | Humidity | Pressure | Rain* | Wind** | Luminosity | Snow |
|---|---|---|---|---|---|---|---|
| 1778107016 | 12.78° C | 66% | 1012.8 hPa | 0 mm | - | 46 W/m² | - |
| 1778106712 | 12.78° C | 67% | 1012.5 hPa | 0 mm | - | 58 W/m² | - |
| 1778106409 | 12.78° C | 68% | 1012.3 hPa | 0 mm | - | 47 W/m² | - |
| 1778106105 | 12.78° C | 68% | 1012.3 hPa | 0 mm | - | 48 W/m² | - |
| 1778105803 | 12.78° C | 67% | 1012.2 hPa | 0 mm | - | 61 W/m² | - |
| 1778105501 | 12.78° C | 68% | 1012.5 hPa | 0 mm | - | 78 W/m² | - |
| 1778105198 | 12.78° C | 66% | 1012.4 hPa | 0 mm | - | 112 W/m² | - |
| 1778104893 | 12.78° C | 67% | 1012.3 hPa | 0 mm | - | 115 W/m² | - |
| 1778104590 | 12.78° C | 66% | 1011.9 hPa | 0 mm | - | 93 W/m² | - |
| 1778104285 | 12.22° C | 68% | 1011.8 hPa | 0 mm | - | 105 W/m² | - |
| 1778103982 | 12.22° C | 69% | 1012.1 hPa | 0 mm | - | 63 W/m² | - |
| 1778103680 | 12.22° C | 71% | 1012 hPa | 0 mm | - | 29 W/m² | - |
| 1778103378 | 12.78° C | 72% | 1012 hPa | 0 mm | - | 28 W/m² | - |
| 1778103074 | 12.78° C | 71% | 1012 hPa | 0 mm | - | 35 W/m² | - |
| 1778102772 | 12.78° C | 71% | 1011.8 hPa | 0 mm | - | 43 W/m² | - |
| 1778102466 | 12.78° C | 71% | 1011.9 hPa | 0 mm | - | 71 W/m² | - |
| 1778102162 | 12.78° C | 71% | 1011.9 hPa | 0 mm | - | 87 W/m² | - |
| 1778101860 | 12.78° C | 71% | 1011.5 hPa | 0 mm | - | 94 W/m² | - |
| 1778101556 | 12.78° C | 71% | 1011.5 hPa | 0 mm | - | 101 W/m² | - |
| 1778101253 | 12.78° C | 74% | 1011.4 hPa | 0 mm | - | 116 W/m² | - |
| 1778100950 | 12.78° C | 75% | 1011.3 hPa | 0 mm | - | 87 W/m² | - |
| 1778100644 | 12.78° C | 74% | 1011.4 hPa | 0 mm | - | 45 W/m² | - |
| 1778100343 | 12.78° C | 73% | 1011.4 hPa | 0 mm | - | 42 W/m² | - |
| 1778100040 | 12.78° C | 72% | 1011.5 hPa | 0 mm | - | 83 W/m² | - |
| 1778099738 | 12.78° C | 73% | 1011.5 hPa | 0 mm | - | 182 W/m² | - |
* Rain latest hour (hover to see other rain measurements)
** Current wind speed in m/s (hover to see current wind gust speed)